Time,TemperatureF,DewpointF,PressureIn,WindDirection,WindDirectionDegrees,WindSpeedMPH,WindSpeedGustMPH,Humidity,HourlyPrecipIn,Conditions,Clouds,dailyrainin,SolarRadiationWatts/m^2,SoftwareType,DateUTC
2013-04-14 00:03:00,39.0,27.0,-100.00,North,2,8.0,20.0,62,0.00,,,0.00,0.000000,,2013-04-14 04:03:00,
2013-04-14 00:13:00,39.0,27.0,-100.00,North,2,8.0,20.0,62,0.00,,,0.00,0.000000,,2013-04-14 04:13:00,
2013-04-14 00:33:00,38.0,27.0,-100.00,North,2,8.0,16.0,64,0.00,,,0.00,0.000000,,2013-04-14 04:33:00,
2013-04-14 00:43:00,38.0,27.0,-100.00,North,2,8.0,16.0,64,0.00,,,0.00,0.000000,,2013-04-14 04:43:00,
2013-04-14 00:53:00,38.0,27.0,-100.00,North,2,8.0,16.0,64,0.00,,,0.00,0.000000,,2013-04-14 04:53:00,
2013-04-14 01:03:00,38.0,27.0,-100.00,North,2,8.0,16.0,64,0.00,,,0.00,0.000000,,2013-04-14 05:03:00,
2013-04-14 01:12:00,38.0,27.0,-100.00,North,2,8.0,16.0,64,0.00,,,0.00,0.000000,,2013-04-14 05:12:00,
2013-04-14 01:32:00,38.0,28.0,-100.00,North,0,8.0,19.0,68,0.00,,,0.00,0.000000,,2013-04-14 05:32:00,
2013-04-14 01:43:00,38.0,28.0,-100.00,North,0,8.0,19.0,68,0.00,,,0.00,0.000000,,2013-04-14 05:43:00,
2013-04-14 01:53:00,38.0,28.0,-100.00,North,0,8.0,19.0,68,0.00,,,0.00,0.000000,,2013-04-14 05:53:00,
2013-04-14 02:02:00,38.0,28.0,-100.00,North,0,8.0,19.0,68,0.00,,,0.00,0.000000,,2013-04-14 06:02:00,
2013-04-14 02:12:00,38.0,28.0,-100.00,North,0,8.0,19.0,68,0.00,,,0.00,0.000000,,2013-04-14 06:12:00,
2013-04-14 02:42:00,36.0,28.0,-100.00,North,4,11.0,19.0,73,0.00,,,0.00,0.000000,,2013-04-14 06:42:00,
2013-04-14 02:53:00,36.0,28.0,-100.00,North,4,11.0,19.0,73,0.00,,,0.00,0.000000,,2013-04-14 06:53:00,
2013-04-14 03:03:00,36.0,28.0,-100.00,North,4,11.0,19.0,73,0.00,,,0.00,0.000000,,2013-04-14 07:03:00,
2013-04-14 03:12:00,36.0,28.0,-100.00,North,4,11.0,19.0,73,0.00,,,0.00,0.000000,,2013-04-14 07:12:00,
2013-04-14 03:42:00,32.0,20.0,-100.00,North,4,9.0,23.0,62,0.00,,,0.00,0.000000,,2013-04-14 07:42:00,
2013-04-14 03:52:00,32.0,20.0,-100.00,North,4,9.0,23.0,62,0.00,,,0.00,0.000000,,2013-04-14 07:52:00,
2013-04-14 04:03:00,32.0,20.0,-100.00,North,4,9.0,23.0,62,0.00,,,0.00,0.000000,,2013-04-14 08:03:00,
2013-04-14 04:12:00,32.0,20.0,-100.00,North,4,9.0,23.0,62,0.00,,,0.00,0.000000,,2013-04-14 08:12:00,
2013-04-14 04:43:00,31.0,22.0,-100.00,North,4,8.0,15.0,68,0.00,,,0.00,0.000000,,2013-04-14 08:43:00,
2013-04-14 04:52:00,31.0,22.0,-100.00,North,4,8.0,15.0,68,0.00,,,0.00,0.000000,,2013-04-14 08:52:00,
2013-04-14 05:03:00,31.0,22.0,-100.00,North,4,8.0,15.0,68,0.00,,,0.00,0.000000,,2013-04-14 09:03:00,
2013-04-14 05:12:00,31.0,22.0,-100.00,North,4,8.0,15.0,68,0.00,,,0.00,0.000000,,2013-04-14 09:12:00,
2013-04-14 05:43:00,30.0,23.0,-100.00,North,3,8.0,14.0,74,0.00,,,0.00,0.000000,,2013-04-14 09:43:00,
2013-04-14 05:54:00,30.0,23.0,-100.00,North,3,8.0,14.0,74,0.00,,,0.00,0.000000,,2013-04-14 09:54:00,
2013-04-14 06:03:00,30.0,23.0,-100.00,North,3,8.0,14.0,74,0.00,,,0.00,0.000000,,2013-04-14 10:03:00,
2013-04-14 06:13:00,30.0,23.0,-100.00,North,3,8.0,14.0,74,0.00,,,0.00,0.000000,,2013-04-14 10:13:00,
2013-04-14 06:33:00,29.0,23.0,-100.00,North,4,8.0,15.0,77,0.00,,,0.00,0.000000,,2013-04-14 10:33:00,
2013-04-14 06:43:00,29.0,23.0,-100.00,North,4,8.0,15.0,77,0.00,,,0.00,0.000000,,2013-04-14 10:43:00,
2013-04-14 06:53:00,29.0,23.0,-100.00,North,4,8.0,15.0,77,0.00,,,0.00,0.000000,,2013-04-14 10:53:00,
2013-04-14 07:03:00,29.0,23.0,-100.00,North,4,8.0,15.0,77,0.00,,,0.00,0.000000,,2013-04-14 11:03:00,
2013-04-14 07:13:00,29.0,23.0,-100.00,North,4,8.0,15.0,77,0.00,,,0.00,0.000000,,2013-04-14 11:13:00,
2013-04-14 07:33:00,30.0,25.0,-100.00,North,3,7.0,13.0,80,0.00,,,0.00,19.000000,,2013-04-14 11:33:00,
2013-04-14 07:42:00,30.0,25.0,-100.00,North,3,7.0,13.0,80,0.00,,,0.00,19.000000,,2013-04-14 11:42:00,
2013-04-14 07:53:00,30.0,25.0,-100.00,North,3,7.0,13.0,80,0.00,,,0.00,19.000000,,2013-04-14 11:53:00,
2013-04-14 08:02:00,30.0,25.0,-100.00,North,3,7.0,13.0,80,0.00,,,0.00,19.000000,,2013-04-14 12:02:00,
2013-04-14 08:12:00,30.0,25.0,-100.00,North,3,7.0,13.0,80,0.00,,,0.00,19.000000,,2013-04-14 12:12:00,
2013-04-14 08:42:00,33.0,25.0,-100.00,North,3,9.0,15.0,73,0.00,,,0.00,186.000000,,2013-04-14 12:42:00,
2013-04-14 08:52:00,33.0,25.0,-100.00,North,3,9.0,15.0,73,0.00,,,0.00,186.000000,,2013-04-14 12:52:00,
2013-04-14 09:02:00,33.0,25.0,-100.00,North,3,9.0,15.0,73,0.00,,,0.00,186.000000,,2013-04-14 13:02:00,
2013-04-14 09:12:00,33.0,25.0,-100.00,North,3,9.0,15.0,73,0.00,,,0.00,186.000000,,2013-04-14 13:12:00,
2013-04-14 09:33:00,36.0,25.0,-100.00,North,3,9.0,17.0,64,0.00,,,0.00,375.000000,,2013-04-14 13:33:00,
2013-04-14 09:43:00,36.0,25.0,-100.00,North,3,9.0,17.0,64,0.00,,,0.00,375.000000,,2013-04-14 13:43:00,
2013-04-14 09:52:00,36.0,25.0,-100.00,North,3,9.0,17.0,64,0.00,,,0.00,375.000000,,2013-04-14 13:52:00,
2013-04-14 10:02:00,36.0,25.0,-100.00,North,3,9.0,17.0,64,0.00,,,0.00,375.000000,,2013-04-14 14:02:00,
2013-04-14 10:12:00,36.0,25.0,-100.00,North,3,9.0,17.0,64,0.00,,,0.00,375.000000,,2013-04-14 14:12:00,
2013-04-14 10:42:00,39.0,25.0,-100.00,North,2,8.0,18.0,58,0.00,,,0.00,460.000000,,2013-04-14 14:42:00,
2013-04-14 10:53:00,39.0,25.0,-100.00,North,2,8.0,18.0,58,0.00,,,0.00,460.000000,,2013-04-14 14:53:00,
2013-04-14 11:03:00,39.0,25.0,-100.00,North,2,8.0,18.0,58,0.00,,,0.00,460.000000,,2013-04-14 15:03:00,
2013-04-14 11:12:00,39.0,25.0,-100.00,North,2,8.0,18.0,58,0.00,,,0.00,460.000000,,2013-04-14 15:12:00,
2013-04-14 11:34:00,44.0,26.0,-100.00,North,1,8.0,17.0,48,0.00,,,0.00,658.000000,,2013-04-14 15:34:00,
2013-04-14 11:44:00,44.0,26.0,-100.00,North,1,8.0,17.0,48,0.00,,,0.00,658.000000,,2013-04-14 15:44:00,
2013-04-14 11:53:00,44.0,26.0,-100.00,North,1,8.0,17.0,48,0.00,,,0.00,658.000000,,2013-04-14 15:53:00,
2013-04-14 12:05:00,44.0,26.0,-100.00,North,1,8.0,17.0,48,0.00,,,0.00,658.000000,,2013-04-14 16:05:00,
2013-04-14 12:13:00,44.0,26.0,-100.00,North,1,8.0,17.0,48,0.00,,,0.00,658.000000,,2013-04-14 16:13:00,
2013-04-14 12:33:00,44.0,23.0,-100.00,North,0,10.0,20.0,44,0.00,,,0.00,653.000000,,2013-04-14 16:33:00,
2013-04-14 12:43:00,44.0,23.0,-100.00,North,0,10.0,20.0,44,0.00,,,0.00,653.000000,,2013-04-14 16:43:00,
2013-04-14 12:53:00,44.0,23.0,-100.00,North,0,10.0,20.0,44,0.00,,,0.00,653.000000,,2013-04-14 16:53:00,
2013-04-14 13:02:00,44.0,23.0,-100.00,North,0,10.0,20.0,44,0.00,,,0.00,653.000000,,2013-04-14 17:02:00,
2013-04-14 13:13:00,44.0,23.0,-100.00,North,0,10.0,20.0,44,0.00,,,0.00,653.000000,,2013-04-14 17:13:00,
2013-04-14 13:43:00,45.0,22.0,-100.00,North,2,9.0,20.0,40,0.00,,,0.00,530.000000,,2013-04-14 17:43:00,
2013-04-14 13:53:00,45.0,22.0,-100.00,North,2,9.0,20.0,40,0.00,,,0.00,530.000000,,2013-04-14 17:53:00,
2013-04-14 14:03:00,45.0,22.0,-100.00,North,2,9.0,20.0,40,0.00,,,0.00,530.000000,,2013-04-14 18:03:00,
2013-04-14 14:12:00,45.0,22.0,-100.00,North,2,9.0,20.0,40,0.00,,,0.00,530.000000,,2013-04-14 18:12:00,
2013-04-14 14:43:00,46.0,25.0,-100.00,North,0,9.0,17.0,43,0.00,,,0.00,279.000000,,2013-04-14 18:43:00,
2013-04-14 14:54:00,46.0,25.0,-100.00,North,0,9.0,17.0,43,0.00,,,0.00,279.000000,,2013-04-14 18:54:00,
2013-04-14 15:04:00,46.0,25.0,-100.00,North,0,9.0,17.0,43,0.00,,,0.00,279.000000,,2013-04-14 19:04:00,
2013-04-14 15:12:00,46.0,25.0,-100.00,North,0,9.0,17.0,43,0.00,,,0.00,279.000000,,2013-04-14 19:12:00,
2013-04-14 15:43:00,48.0,26.0,-100.00,North,2,10.0,18.0,42,0.00,,,0.00,434.000000,,2013-04-14 19:43:00,
2013-04-14 15:53:00,48.0,26.0,-100.00,North,2,10.0,18.0,42,0.00,,,0.00,434.000000,,2013-04-14 19:53:00,
2013-04-14 16:03:00,48.0,26.0,-100.00,North,2,10.0,18.0,42,0.00,,,0.00,434.000000,,2013-04-14 20:03:00,
2013-04-14 16:13:00,48.0,26.0,-100.00,North,2,10.0,18.0,42,0.00,,,0.00,434.000000,,2013-04-14 20:13:00,
2013-04-14 16:43:00,49.0,27.0,-100.00,North,0,11.0,19.0,43,0.00,,,0.00,484.000000,,2013-04-14 20:43:00,
2013-04-14 16:53:00,49.0,27.0,-100.00,North,0,11.0,19.0,43,0.00,,,0.00,484.000000,,2013-04-14 20:53:00,
2013-04-14 17:02:00,49.0,27.0,-100.00,North,0,11.0,19.0,43,0.00,,,0.00,484.000000,,2013-04-14 21:02:00,
2013-04-14 17:13:00,49.0,27.0,-100.00,North,0,11.0,19.0,43,0.00,,,0.00,484.000000,,2013-04-14 21:13:00,
2013-04-14 17:43:00,49.0,28.0,-100.00,North,1,7.0,15.0,44,0.00,,,0.00,355.000000,,2013-04-14 21:43:00,
2013-04-14 17:54:00,49.0,28.0,-100.00,North,1,7.0,15.0,44,0.00,,,0.00,355.000000,,2013-04-14 21:54:00,
2013-04-14 18:03:00,49.0,28.0,-100.00,North,1,7.0,15.0,44,0.00,,,0.00,355.000000,,2013-04-14 22:03:00,
2013-04-14 18:13:00,49.0,28.0,-100.00,North,1,7.0,15.0,44,0.00,,,0.00,355.000000,,2013-04-14 22:13:00,
2013-04-14 18:44:00,49.0,29.0,-100.00,North,1,6.0,15.0,45,0.00,,,0.00,231.000000,,2013-04-14 22:44:00,
2013-04-14 18:53:00,49.0,29.0,-100.00,North,1,6.0,15.0,45,0.00,,,0.00,231.000000,,2013-04-14 22:53:00,
2013-04-14 19:02:00,49.0,29.0,-100.00,North,1,6.0,15.0,45,0.00,,,0.00,231.000000,,2013-04-14 23:02:00,
2013-04-14 19:12:00,49.0,29.0,-100.00,North,1,6.0,15.0,45,0.00,,,0.00,231.000000,,2013-04-14 23:12:00,
2013-04-14 19:33:00,47.0,29.0,-100.00,North,359,3.0,10.0,49,0.00,,,0.00,53.000000,,2013-04-14 23:33:00,
2013-04-14 19:43:00,47.0,29.0,-100.00,North,359,3.0,10.0,49,0.00,,,0.00,53.000000,,2013-04-14 23:43:00,
2013-04-14 19:53:00,47.0,29.0,-100.00,North,359,3.0,10.0,49,0.00,,,0.00,53.000000,,2013-04-14 23:53:00,
2013-04-14 20:02:00,47.0,29.0,-100.00,North,359,3.0,10.0,49,0.00,,,0.00,53.000000,,2013-04-15 00:02:00,
2013-04-14 20:13:00,47.0,29.0,-100.00,North,359,3.0,10.0,49,0.00,,,0.00,53.000000,,2013-04-15 00:13:00,
2013-04-14 20:43:00,45.0,29.0,-100.00,North,2,3.0,4.0,54,0.00,,,0.00,5.000000,,2013-04-15 00:43:00,
2013-04-14 20:53:00,45.0,29.0,-100.00,North,2,3.0,4.0,54,0.00,,,0.00,5.000000,,2013-04-15 00:53:00,
2013-04-14 21:03:00,45.0,29.0,-100.00,North,2,3.0,4.0,54,0.00,,,0.00,5.000000,,2013-04-15 01:03:00,
2013-04-14 21:13:00,45.0,29.0,-100.00,North,2,3.0,4.0,54,0.00,,,0.00,5.000000,,2013-04-15 01:13:00,
2013-04-14 21:33:00,44.0,29.0,-100.00,North,353,4.0,7.0,55,0.00,,,0.00,0.000000,,2013-04-15 01:33:00,
2013-04-14 21:43:00,44.0,29.0,-100.00,North,353,4.0,7.0,55,0.00,,,0.00,0.000000,,2013-04-15 01:43:00,
2013-04-14 21:52:00,44.0,29.0,-100.00,North,353,4.0,7.0,55,0.00,,,0.00,0.000000,,2013-04-15 01:52:00,
2013-04-14 22:03:00,44.0,29.0,-100.00,North,353,4.0,7.0,55,0.00,,,0.00,0.000000,,2013-04-15 02:03:00,
2013-04-14 22:12:00,44.0,29.0,-100.00,North,353,4.0,7.0,55,0.00,,,0.00,0.000000,,2013-04-15 02:12:00,
2013-04-14 22:42:00,45.0,28.0,-100.00,NW,313,2.0,6.0,51,0.00,,,0.00,0.000000,,2013-04-15 02:42:00,
2013-04-14 22:53:00,45.0,28.0,-100.00,NW,313,2.0,6.0,51,0.00,,,0.00,0.000000,,2013-04-15 02:53:00,
2013-04-14 23:03:00,45.0,28.0,-100.00,NW,313,2.0,6.0,51,0.00,,,0.00,0.000000,,2013-04-15 03:03:00,
2013-04-14 23:12:00,45.0,28.0,-100.00,NW,313,2.0,6.0,51,0.00,,,0.00,0.000000,,2013-04-15 03:12:00,
2013-04-14 23:43:00,45.0,29.0,-100.00,North,3,4.0,5.0,53,0.00,,,0.00,0.000000,,2013-04-15 03:43:00,
2013-04-14 23:55:00,45.0,29.0,-100.00,North,3,4.0,5.0,53,0.00,,,0.00,0.000000,,2013-04-15 03:55:00,